[[{"header":{"parameterUnit":"m.s-1","parameterCategory":2,"la1":30.2991,"la2":30.254,"lo1":-89.0895,"lo2":-89.0444,"dy":0.0017,"dx":0.0017,"nx":28,"ny":28,"refTime":"2023-10-10T21:00:00:Z","depth":"0","parameterNumber":2,"parameterNumberName":"U-component_of_CURRENTS"},"data":[0,0,0,0,0,0,0,0,0,0,0,0,0,0,0,0,0,0,0,0,0,0,0,0,0,0,0,0,0,0,0,0,0,0,0,0,0,0,0,0,0,0,0,0,0,0,0,0,0,0,0,0,0,0,0,0,0,0,-0.395,-0.395,0,-0.3924,-0.3923,-0.3922,-0.3888,-0.3888,-0.3887,-0.3887,-0.3799,-0.3797,-0.3795,0,0,0,0,0,0,0,0,0,0,0,0,0,-0.3881,-0.3883,-0.395,-0.395,-0.3951,-0.3924,-0.3923,-0.3922,-0.3888,-0.3888,-0.3887,-0.3887,-0.38,-0.3797,-0.3794,0,0,0,0,0,0,0,0,0,0,0,0,0,-0.3884,-0.3883,-0.395,-0.3934,-0.3933,-0.3924,-0.3923,-0.3922,-0.3888,-0.3888,-0.3887,-0.3887,-0.3801,-0.3797,-0.3794,-0.3775,0,0,-0.3784,-0.3782,0,0,0,0,0,0,0,0,-0.3884,-0.3885,-0.3936,-0.3935,-0.3934,-0.3914,-0.3866,-0.3872,-0.3888,-0.3899,-0.3887,-0.3887,-0.3835,-0.3829,-0.3817,-0.3771,-0.3767,-0.3783,-0.3781,-0.378,-0.3779,0,0,0,0,0,0,0,-0.3884,-0.3886,-0.3934,-0.3937,-0.3935,-0.3898,-0.3898,-0.3867,-0.3863,-0.3898,-0.3897,-0.3903,-0.3833,-0.3821,-0.3815,-0.3766,-0.3783,-0.378,-0.3778,-0.3777,-0.3713,-0.3713,0,0,0,0,0,0,-0.3903,-0.3887,-0.3935,-0.3934,-0.3914,-0.39,-0.39,-0.3916,-0.3864,-0.3859,-0.3903,-0.3901,-0.3827,-0.3819,-0.3812,-0.3808,-0.378,-0.3777,-0.3775,-0.3712,-0.3713,-0.3713,0,0,0,0,0,0,-0.3902,-0.3908,-0.3936,-0.3913,-0.3915,-0.3903,-0.392,-0.3916,-0.3907,-0.387,-0.3861,-0.39,-0.3826,-0.3817,-0.3789,-0.3804,-0.3775,-0.3772,-0.3712,-0.3712,-0.3713,-0.3787,0,0,0,0,0,0,-0.39,-0.3908,-0.3917,-0.3915,-0.3917,-0.3947,-0.392,-0.3915,-0.3913,-0.3911,-0.3864,-0.3856,-0.3826,-0.3794,-0.3785,-0.3798,-0.3769,-0.3711,-0.3712,-0.3713,-0.3784,-0.379,-0.3795,0,0,0,0,0,-0.3898,-0.3919,-0.3918,-0.3923,-0.3934,-0.3949,-0.3946,-0.3932,-0.3914,-0.392,-0.3881,-0.3857,-0.3792,-0.3791,-0.3781,-0.3794,-0.3711,-0.3712,-0.3713,-0.3781,-0.3789,-0.3795,0,0,0,0,0,0,-0.3889,-0.3918,-0.3916,-0.3944,-0.3953,-0.3945,-0.3946,-0.3937,-0.391,-0.39,-0.3857,-0.3846,-0.3828,-0.3798,-0.3799,-0.3777,-0.3749,-0.3748,-0.3805,-0.3812,-0.3817,-0.3831,-0.3766,0,0,0,0,0,-0.3895,-0.3916,-0.3936,-0.3953,-0.3963,-0.3953,-0.3953,-0.3949,-0.3932,-0.392,-0.3887,-0.3849,-0.3822,-0.3808,-0.3777,-0.3762,-0.3764,-0.3764,-0.377,-0.3775,-0.3779,-0.3789,-0.3796,-0.3716,-0.3716,-0.3716,0,0,-0.3893,-0.3912,-0.3921,-0.3952,-0.3951,-0.3973,-0.3951,-0.3962,-0.397,-0.3913,-0.3899,-0.3864,-0.3822,-0.3808,-0.3798,-0.3786,-0.3805,-0.3776,-0.3781,-0.3781,-0.379,-0.3799,-0.3806,-0.3716,-0.3716,-0.3716,0,0,-0.3906,-0.3921,-0.3946,-0.3963,-0.3982,-0.3983,-0.3992,-0.3992,-0.3983,-0.3971,-0.3932,-0.391,-0.3864,-0.3844,-0.3826,-0.3841,-0.3832,-0.3831,-0.3871,-0.3881,-0.3889,-0.3895,-0.394,-0.395,-0.3836,-0.3836,-0.3836,0,-0.3902,-0.3941,-0.3952,-0.3984,-0.4,-0.3994,-0.4023,-0.4017,-0.4003,-0.3999,-0.3977,-0.392,-0.3884,-0.3874,-0.3878,-0.3855,-0.387,-0.3852,-0.3891,-0.3897,-0.3902,-0.3946,-0.3956,-0.384,-0.3839,-0.3839,-0.3839,0,-0.3935,-0.3968,-0.3984,-0.4024,-0.4042,-0.4065,-0.4076,-0.408,-0.4063,-0.4054,-0.4038,-0.3988,-0.3957,-0.3946,-0.3912,-0.3929,-0.3934,-0.3898,-0.388,-0.3915,-0.3959,-0.3968,-0.3845,-0.3844,-0.3843,-0.3842,0,0,-0.3911,-0.3995,-0.3994,-0.4027,-0.4068,-0.4084,-0.411,-0.413,-0.4143,-0.4116,-0.4127,-0.4076,-0.4047,-0.4024,-0.3985,-0.399,-0.4044,-0.3963,-0.3962,-0.402,-0.4101,-0.4186,-0.4204,-0.4017,-0.4019,-0.4019,-0.413,0,-0.3928,-0.4,-0.4033,-0.4086,-0.4125,-0.4145,-0.4171,-0.4185,-0.4183,-0.419,-0.4149,-0.4132,-0.4078,-0.4062,-0.4061,-0.4036,-0.4065,-0.4019,-0.4047,-0.4049,-0.413,-0.4215,-0.4248,-0.4356,-0.4139,-0.414,-0.4141,0,-0.3937,-0.399,-0.4055,-0.4134,-0.4151,-0.4175,-0.4218,-0.4239,-0.4257,-0.4256,-0.4242,-0.421,-0.42,-0.4148,-0.4152,-0.4126,-0.4125,-0.4115,-0.4118,-0.4175,-0.415,-0.4278,-0.438,-0.4408,-0.4154,-0.4153,-0.4152,0,-0.3903,-0.3994,-0.4046,-0.4073,-0.4162,-0.4183,-0.4212,-0.4247,-0.4275,-0.4287,-0.4318,-0.4288,-0.4288,-0.4263,-0.4242,-0.4197,-0.4272,-0.4204,-0.4294,-0.4301,-0.4323,-0.4331,-0.4462,-0.4236,-0.4235,-0.4235,-0.4235,0,-0.3905,-0.3939,-0.4033,-0.4061,-0.4112,-0.417,-0.4216,-0.4243,-0.4299,-0.4353,-0.4336,-0.4376,-0.4316,-0.4345,-0.4299,-0.4353,-0.4323,-0.4335,-0.4342,-0.4354,-0.4363,-0.4379,-0.4348,-0.4239,-0.4238,-0.4237,-0.4237,0,-0.3849,-0.392,-0.3979,-0.4074,-0.41,-0.4121,-0.4216,-0.4265,-0.4318,-0.4394,-0.4403,-0.4455,-0.4506,-0.4488,-0.4481,-0.446,-0.4462,-0.4497,-0.4541,-0.4552,-0.4646,-0.4616,-0.4595,-0.4541,-0.4612,-0.4615,-0.4618,0,-0.3826,-0.3854,-0.3957,-0.3996,-0.4033,-0.4091,-0.4153,-0.4241,-0.4313,-0.4446,-0.4495,-0.458,-0.467,-0.4732,-0.4724,-0.4741,-0.4602,-0.4744,-0.4657,-0.4703,-0.4672,-0.4513,-0.4453,-0.4723,-0.4727,-0.4729,-0.4731,0,-0.3759,-0.3792,-0.3838,-0.3926,-0.3993,-0.4078,-0.4173,-0.4248,-0.4382,-0.451,-0.4679,-0.4766,-0.4887,-0.4967,-0.4993,-0.4936,-0.4707,-0.4799,-0.4817,-0.4771,-0.463,-0.4564,-0.4618,-0.4754,-0.4751,-0.475,-0.4749,-0.4748,-0.3672,-0.3686,-0.3752,-0.3814,-0.3914,-0.4026,-0.4036,-0.4244,-0.4396,-0.4594,-0.4779,-0.4991,-0.5159,-0.5236,-0.5174,-0.5147,-0.4937,-0.5016,-0.498,-0.4817,-0.4753,-0.4894,-0.5049,-0.5048,-0.5048,-0.5047,-0.5047,0,-0.3534,-0.3569,-0.3641,-0.3715,-0.3764,-0.3858,-0.401,-0.4019,-0.4199,-0.4596,-0.4821,-0.5319,-0.5443,-0.55,-0.5564,-0.5391,-0.5161,-0.5203,-0.4983,-0.4913,-0.5054,-0.5053,-0.5252,-0.5252,-0.5252,-0.5252,-0.5252,-0.5252,-0.3457,-0.3452,-0.3496,-0.3507,-0.3563,-0.3536,-0.3572,-0.3694,-0.3909,-0.4343,-0.4799,-0.5172,-0.5319,-0.5807,-0.5727,-0.5525,-0.5301,-0.5132,-0.5035,-0.518,-0.5157,-0.5136,-0.5132,-0.5344,-0.5344,-0.4826,-0.4823,-0.4821]},{"header":{"parameterUnit":"m.s-1","parameterCategory":2,"la1":30.2991,"la2":30.254,"lo1":-89.0895,"lo2":-89.0444,"dy":0.0017,"dx":0.0017,"nx":28,"ny":28,"refTime":"2023-10-10T21:00:00:Z","depth":"0","parameterNumber":3,"parameterNumberName":"V-component_of_CURRENTS"},"data":[0,0,0,0,0,0,0,0,0,0,0,0,0,0,0,0,0,0,0,0,0,0,0,0,0,0,0,0,0,0,0,0,0,0,0,0,0,0,0,0,0,0,0,0,0,0,0,0,0,0,0,0,0,0,0,0,0,0,-0.0613,-0.0612,0,-0.0483,-0.0482,-0.048,-0.0422,-0.0422,-0.0422,-0.0422,-0.0307,-0.0304,-0.0301,0,0,0,0,0,0,0,0,0,0,0,0,0,-0.0754,-0.0752,-0.0614,-0.0612,-0.061,-0.0483,-0.0481,-0.048,-0.0422,-0.0422,-0.0422,-0.0422,-0.0308,-0.0305,-0.0301,0,0,0,0,0,0,0,0,0,0,0,0,0,-0.0666,-0.0751,-0.0614,-0.0565,-0.056,-0.0484,-0.0481,-0.0479,-0.0421,-0.0422,-0.0422,-0.0422,-0.031,-0.0305,-0.03,-0.0269,0,0,-0.0286,-0.0284,0,0,0,0,0,0,0,0,-0.0671,-0.0661,-0.0574,-0.0568,-0.0562,-0.0468,-0.0489,-0.0409,-0.0421,-0.0475,-0.0422,-0.0422,-0.0362,-0.0353,-0.0329,-0.0263,-0.0258,-0.0286,-0.0283,-0.0281,-0.028,0,0,0,0,0,0,0,-0.0677,-0.0666,-0.0563,-0.0572,-0.0565,-0.053,-0.0518,-0.0473,-0.042,-0.047,-0.0465,-0.045,-0.0359,-0.0334,-0.0326,-0.0257,-0.0286,-0.0282,-0.0279,-0.0277,-0.0153,-0.0153,0,0,0,0,0,0,-0.0695,-0.0672,-0.0567,-0.0559,-0.0617,-0.0528,-0.0514,-0.0499,-0.042,-0.0408,-0.045,-0.0447,-0.0342,-0.0331,-0.0322,-0.0273,-0.0281,-0.0276,-0.0274,-0.0154,-0.0153,-0.0152,0,0,0,0,0,0,-0.0698,-0.0686,-0.0572,-0.0612,-0.0595,-0.0525,-0.0508,-0.0496,-0.0471,-0.0404,-0.0393,-0.0437,-0.0341,-0.0328,-0.0278,-0.0269,-0.0274,-0.027,-0.0154,-0.0153,-0.0153,-0.018,0,0,0,0,0,0,-0.0703,-0.0689,-0.0688,-0.0613,-0.0593,-0.0531,-0.0507,-0.0493,-0.0461,-0.0456,-0.0389,-0.0379,-0.034,-0.0285,-0.0273,-0.0262,-0.0266,-0.0155,-0.0154,-0.0153,-0.0179,-0.018,-0.0181,0,0,0,0,0,-0.0708,-0.0708,-0.0689,-0.0676,-0.0593,-0.053,-0.0517,-0.0468,-0.046,-0.0448,-0.0401,-0.0381,-0.0272,-0.0281,-0.0267,-0.0254,-0.0155,-0.0154,-0.0153,-0.0179,-0.018,-0.0181,0,0,0,0,0,0,-0.0773,-0.0699,-0.0677,-0.0656,-0.0599,-0.052,-0.0507,-0.0473,-0.0425,-0.0426,-0.0369,-0.0354,-0.0309,-0.0278,-0.029,-0.0217,-0.0212,-0.0208,-0.0237,-0.0237,-0.0238,-0.0246,-0.0263,0,0,0,0,0,-0.0786,-0.0765,-0.0688,-0.0673,-0.0648,-0.058,-0.0551,-0.0515,-0.046,-0.0439,-0.0388,-0.0339,-0.0292,-0.0264,-0.022,-0.0175,-0.0142,-0.016,-0.0161,-0.0162,-0.0159,-0.0105,-0.0101,-0.0149,-0.0149,-0.0149,0,0,-0.0811,-0.0765,-0.0756,-0.0685,-0.0642,-0.0605,-0.0563,-0.0523,-0.0489,-0.0435,-0.0383,-0.034,-0.0282,-0.0233,-0.021,-0.0205,-0.0129,-0.016,-0.0161,-0.0158,-0.0104,-0.0099,-0.0095,-0.0148,-0.0148,-0.0148,0,0,-0.0846,-0.0806,-0.08,-0.0751,-0.0684,-0.0633,-0.0624,-0.0544,-0.0506,-0.0448,-0.0404,-0.0351,-0.028,-0.0228,-0.0196,-0.0172,-0.0138,-0.0167,-0.0168,-0.0116,-0.0112,-0.0108,-0.0056,-0.0047,-0.0163,-0.0163,-0.0163,0,-0.0883,-0.0856,-0.0789,-0.0765,-0.0731,-0.065,-0.0633,-0.0574,-0.0486,-0.045,-0.0441,-0.0319,-0.0274,-0.02,-0.0193,-0.0172,-0.0142,-0.0171,-0.0118,-0.0113,-0.0108,-0.0056,-0.0045,-0.0164,-0.0164,-0.0163,-0.0163,0,-0.0904,-0.0882,-0.0874,-0.0813,-0.0765,-0.0738,-0.0646,-0.0597,-0.0545,-0.0481,-0.04,-0.0327,-0.0256,-0.0233,-0.0204,-0.0144,-0.0134,-0.013,-0.0119,-0.0105,-0.0051,-0.0039,-0.0165,-0.0165,-0.0165,-0.0164,0,0,-0.0999,-0.091,-0.091,-0.089,-0.079,-0.0758,-0.069,-0.0603,-0.056,-0.047,-0.041,-0.0318,-0.0275,-0.0236,-0.0186,-0.0134,-0.0073,-0.0123,-0.012,-0.0077,0.004,0.0137,0.0159,-0.0066,-0.0064,-0.0063,0.0065,0,-0.1044,-0.103,-0.0953,-0.0928,-0.0916,-0.0805,-0.0747,-0.0654,-0.0566,-0.0484,-0.0384,-0.0313,-0.0275,-0.0245,-0.0185,-0.0098,-0.0046,-0.0108,0.0024,0.0029,0.0109,0.0174,0.0233,0.0359,0.0076,0.0078,0.0079,0,-0.1099,-0.108,-0.1074,-0.099,-0.0971,-0.0932,-0.0826,-0.0761,-0.0613,-0.0544,-0.0442,-0.0354,-0.0242,-0.0231,-0.0065,-0.011,-0.0043,0.0021,0.0028,0.0137,0.0148,0.03,0.0391,0.0582,0.0097,0.0096,0.0094,0,-0.1225,-0.1163,-0.1166,-0.1139,-0.1029,-0.0996,-0.0934,-0.0794,-0.0737,-0.0585,-0.0528,-0.0373,-0.0298,-0.0185,-0.0025,-0.0053,0.0153,0.013,0.0283,0.0289,0.0378,0.0391,0.0667,0.0228,0.0228,0.0227,0.0227,0,-0.1313,-0.1312,-0.1229,-0.1232,-0.1225,-0.1105,-0.1064,-0.0968,-0.0834,-0.0761,-0.0585,-0.0492,-0.0287,-0.0131,-0.0018,0.0198,0.0165,0.0308,0.0342,0.0372,0.0382,0.0581,0.0665,0.0232,0.0231,0.023,0.0229,0,-0.145,-0.1393,-0.1395,-0.1311,-0.1288,-0.1289,-0.1177,-0.1144,-0.0988,-0.0888,-0.0842,-0.058,-0.034,-0.0119,0.0102,0.0222,0.0518,0.0469,0.0503,0.054,0.086,0.0938,0.1216,0.1227,0.0665,0.0669,0.0671,0,-0.1518,-0.1538,-0.1494,-0.1517,-0.1483,-0.1455,-0.1434,-0.1264,-0.1201,-0.0936,-0.0894,-0.061,-0.0385,0.0024,0.0319,0.0599,0.0665,0.0776,0.0742,0.0928,0.1038,0.1045,0.103,0.0842,0.0846,0.0849,0.0852,0,-0.1653,-0.1636,-0.1644,-0.1708,-0.1706,-0.1681,-0.1615,-0.1575,-0.1347,-0.1191,-0.0935,-0.0724,-0.024,0.0185,0.0587,0.0726,0.0922,0.0852,0.1039,0.1219,0.1251,0.1259,0.0701,0.0881,0.0878,0.0876,0.0874,0.0873,-0.1757,-0.1813,-0.1843,-0.1904,-0.1911,-0.1899,-0.1884,-0.1738,-0.1591,-0.1273,-0.1004,-0.0524,0.0118,0.0743,0.0863,0.1302,0.1184,0.1388,0.1471,0.1461,0.1485,0.1007,0.1227,0.1226,0.1226,0.1225,0.1224,0,-0.1897,-0.196,-0.2041,-0.2092,-0.2155,-0.2088,-0.2003,-0.1929,-0.1745,-0.1295,-0.0949,0.0105,0.067,0.1196,0.1833,0.1959,0.1844,0.1994,0.2017,0.1963,0.1559,0.1581,0.1897,0.1897,0.1896,0.1896,0.1896,0.1896,-0.1974,-0.2107,-0.2159,-0.2317,-0.2342,-0.2361,-0.2315,-0.2114,-0.1795,-0.1052,-0.0299,0.0228,0.1226,0.2384,0.2788,0.2655,0.2651,0.2608,0.2599,0.2363,0.231,0.226,0.2303,0.2764,0.2766,0.2911,0.2915,0.2917]}],[{"header":{"parameterUnit":"m.s-1","parameterCategory":2,"la1":30.2991,"la2":30.254,"lo1":-89.0895,"lo2":-89.0444,"dy":0.0017,"dx":0.0017,"nx":28,"ny":28,"refTime":"2023-10-10T21:00:00:Z","depth":"2","parameterNumber":2,"parameterNumberName":"U-component_of_CURRENTS"},"data":[0,0,0,0,0,0,0,0,0,0,0,0,0,0,0,0,0,0,0,0,0,0,0,0,0,0,0,0,0,0,0,0,0,0,0,0,0,0,0,0,0,0,0,0,0,0,0,0,0,0,0,0,0,0,0,0,0,0,-0.3904,-0.3904,0,-0.3879,-0.3879,-0.3878,-0.3845,-0.3845,-0.3845,-0.3845,-0.3758,-0.3756,-0.3754,0,0,0,0,0,0,0,0,0,0,0,0,0,-0.3834,-0.3836,-0.3904,-0.3904,-0.3905,-0.3879,-0.3879,-0.3878,-0.3845,-0.3845,-0.3845,-0.3845,-0.3759,-0.3756,-0.3753,0,0,0,0,0,0,0,0,0,0,0,0,0,-0.3838,-0.3836,-0.3904,-0.3889,-0.3888,-0.388,-0.3878,-0.3877,-0.3845,-0.3845,-0.3845,-0.3845,-0.376,-0.3756,-0.3753,-0.3734,0,0,-0.3743,-0.3741,0,0,0,0,0,0,0,0,-0.3837,-0.3839,-0.3891,-0.389,-0.3889,-0.387,-0.3822,-0.3828,-0.3845,-0.3855,-0.3845,-0.3844,-0.3793,-0.3787,-0.3776,-0.373,-0.3726,-0.3742,-0.374,-0.3739,-0.3738,0,0,0,0,0,0,0,-0.3837,-0.384,-0.3889,-0.3892,-0.389,-0.3854,-0.3854,-0.3823,-0.382,-0.3854,-0.3853,-0.3859,-0.3792,-0.3779,-0.3773,-0.3725,-0.3743,-0.374,-0.3737,-0.3736,-0.3673,-0.3674,0,0,0,0,0,0,-0.3857,-0.3841,-0.389,-0.3889,-0.3869,-0.3856,-0.3856,-0.3872,-0.3821,-0.3816,-0.3859,-0.3858,-0.3785,-0.3777,-0.377,-0.3768,-0.3739,-0.3736,-0.3734,-0.3673,-0.3673,-0.3674,0,0,0,0,0,0,-0.3855,-0.3862,-0.3891,-0.3867,-0.3869,-0.3858,-0.3875,-0.3871,-0.3864,-0.3827,-0.3819,-0.3857,-0.3785,-0.3775,-0.3748,-0.3763,-0.3734,-0.3731,-0.3672,-0.3673,-0.3673,-0.3748,0,0,0,0,0,0,-0.3854,-0.3862,-0.3871,-0.3869,-0.3872,-0.3902,-0.3876,-0.3871,-0.387,-0.3868,-0.3822,-0.3814,-0.3784,-0.3753,-0.3745,-0.3758,-0.3729,-0.3672,-0.3673,-0.3673,-0.3745,-0.3751,-0.3756,0,0,0,0,0,-0.3851,-0.3873,-0.3872,-0.3877,-0.3888,-0.3904,-0.3901,-0.3888,-0.387,-0.3877,-0.3839,-0.3816,-0.3752,-0.3751,-0.3741,-0.3753,-0.3672,-0.3672,-0.3673,-0.3742,-0.375,-0.3756,0,0,0,0,0,0,-0.3843,-0.3872,-0.387,-0.3898,-0.3908,-0.3901,-0.3902,-0.3893,-0.3868,-0.3858,-0.3815,-0.3805,-0.3788,-0.3758,-0.3758,-0.3737,-0.3709,-0.3708,-0.3766,-0.3772,-0.3777,-0.3791,-0.3726,0,0,0,0,0,-0.3849,-0.387,-0.3891,-0.3908,-0.3918,-0.3908,-0.3909,-0.3905,-0.3889,-0.3878,-0.3845,-0.3808,-0.3782,-0.3768,-0.3737,-0.3723,-0.3724,-0.3725,-0.3731,-0.3736,-0.374,-0.375,-0.3757,-0.3676,-0.3676,-0.3676,0,0,-0.3848,-0.3866,-0.3876,-0.3907,-0.3906,-0.3929,-0.3907,-0.3919,-0.3927,-0.3871,-0.3858,-0.3824,-0.3781,-0.3768,-0.3758,-0.3746,-0.3766,-0.3737,-0.3742,-0.3743,-0.3752,-0.376,-0.3767,-0.3677,-0.3677,-0.3677,0,0,-0.3861,-0.3876,-0.3901,-0.3919,-0.3939,-0.3939,-0.3949,-0.3949,-0.394,-0.393,-0.3892,-0.387,-0.3825,-0.3805,-0.3786,-0.3802,-0.3793,-0.3792,-0.3833,-0.3843,-0.385,-0.3857,-0.3902,-0.3911,-0.3798,-0.3798,-0.3798,0,-0.3857,-0.3896,-0.3908,-0.3939,-0.3956,-0.395,-0.398,-0.3974,-0.3961,-0.3958,-0.3936,-0.3881,-0.3844,-0.3835,-0.3839,-0.3817,-0.3831,-0.3814,-0.3853,-0.3859,-0.3864,-0.3908,-0.3918,-0.3801,-0.3801,-0.3801,-0.38,0,-0.3891,-0.3924,-0.394,-0.398,-0.3998,-0.4022,-0.4033,-0.4038,-0.4022,-0.4013,-0.3998,-0.3949,-0.3918,-0.3907,-0.3874,-0.3891,-0.3895,-0.386,-0.3842,-0.3877,-0.3921,-0.393,-0.3807,-0.3805,-0.3804,-0.3803,0,0,-0.3868,-0.3951,-0.3951,-0.3983,-0.4025,-0.4041,-0.4067,-0.4088,-0.4102,-0.4075,-0.4087,-0.4036,-0.4008,-0.3985,-0.3947,-0.3952,-0.4007,-0.3925,-0.3924,-0.3982,-0.4063,-0.4147,-0.4164,-0.398,-0.3981,-0.3982,-0.4093,0,-0.3885,-0.3957,-0.399,-0.4043,-0.4082,-0.4102,-0.4128,-0.4143,-0.4141,-0.4149,-0.4109,-0.4093,-0.4039,-0.4024,-0.4023,-0.3998,-0.4027,-0.3982,-0.4009,-0.4011,-0.409,-0.4176,-0.361,-0.3668,-0.4101,-0.4102,-0.4103,0,-0.3894,-0.3947,-0.4012,-0.4091,-0.4108,-0.4132,-0.4176,-0.4197,-0.4215,-0.4216,-0.4202,-0.4171,-0.416,-0.411,-0.4114,-0.4088,-0.4088,-0.4078,-0.4081,-0.4136,-0.4111,-0.3694,-0.3667,-0.4118,-0.4116,-0.4115,-0.4114,0,-0.3862,-0.3952,-0.4004,-0.4031,-0.4119,-0.4141,-0.417,-0.4205,-0.4234,-0.4247,-0.4277,-0.4248,-0.4248,-0.4224,-0.4203,-0.4159,-0.4234,-0.4166,-0.4255,-0.4261,-0.3775,-0.3739,-0.4198,-0.4198,-0.4198,-0.4197,-0.4197,0,-0.3864,-0.3898,-0.3991,-0.4019,-0.407,-0.4128,-0.4174,-0.4202,-0.4258,-0.4312,-0.4295,-0.4336,-0.4277,-0.4306,-0.4261,-0.4313,-0.4285,-0.4296,-0.4303,-0.3793,-0.3759,-0.4124,-0.4114,-0.4202,-0.4201,-0.42,-0.4199,0,-0.3808,-0.3879,-0.3938,-0.4033,-0.4058,-0.408,-0.4175,-0.4224,-0.4277,-0.4353,-0.4363,-0.4414,-0.4465,-0.4448,-0.4441,-0.442,-0.4429,-0.4457,-0.3903,-0.3847,-0.4435,-0.4427,-0.4563,-0.4567,-0.4571,-0.4574,-0.4576,0,-0.3786,-0.3814,-0.3917,-0.3955,-0.3993,-0.4051,-0.4112,-0.42,-0.4272,-0.4405,-0.4453,-0.4538,-0.459,-0.4652,-0.4463,-0.4427,-0.4578,-0.4079,-0.3911,-0.4484,-0.4476,-0.4463,-0.4451,-0.3273,-0.3265,-0.3258,-0.3252,0,-0.3719,-0.3752,-0.3798,-0.3886,-0.3953,-0.4037,-0.4131,-0.4206,-0.4339,-0.4427,-0.4595,-0.4645,-0.4602,-0.4291,-0.4246,-0.4139,-0.4031,-0.3959,-0.462,-0.3343,-0.3297,-0.3282,-0.3304,-0.3191,-0.3197,-0.3201,-0.3205,-0.3207,-0.3633,-0.3647,-0.3712,-0.3775,-0.3875,-0.3984,-0.3994,-0.4047,-0.414,-0.4077,-0.4426,-0.4269,-0.4161,-0.3768,-0.3648,-0.3497,-0.3781,-0.361,-0.3615,-0.3631,-0.3536,-0.3507,-0.3422,-0.3429,-0.3435,-0.3441,-0.3446,0,-0.3439,-0.353,-0.3602,-0.3675,-0.3651,-0.3818,-0.3967,-0.3761,-0.3691,-0.3712,-0.37,-0.3294,-0.3127,-0.3102,-0.2704,-0.2761,-0.253,-0.2752,-0.2357,-0.2419,-0.2473,-0.2307,-0.1873,-0.187,-0.1867,-0.1865,0,0,-0.3348,-0.3315,-0.3357,-0.3327,-0.3436,-0.3272,-0.3303,-0.3032,-0.2877,-0.2579,-0.2491,-0.2675,-0.2889,-0.2306,-0.2205,-0.1993,-0.2169,-0.1884,-0.3103,-0.2681,-0.2732,-0.29,-0.271,0,0,0,0,0]},{"header":{"parameterUnit":"m.s-1","parameterCategory":2,"la1":30.2991,"la2":30.254,"lo1":-89.0895,"lo2":-89.0444,"dy":0.0017,"dx":0.0017,"nx":28,"ny":28,"refTime":"2023-10-10T21:00:00:Z","depth":"2","parameterNumber":3,"parameterNumberName":"V-component_of_CURRENTS"},"data":[0,0,0,0,0,0,0,0,0,0,0,0,0,0,0,0,0,0,0,0,0,0,0,0,0,0,0,0,0,0,0,0,0,0,0,0,0,0,0,0,0,0,0,0,0,0,0,0,0,0,0,0,0,0,0,0,0,0,-0.0588,-0.0586,0,-0.0458,-0.0456,-0.0455,-0.0397,-0.0397,-0.0397,-0.0397,-0.0283,-0.028,-0.0277,0,0,0,0,0,0,0,0,0,0,0,0,0,-0.0727,-0.0725,-0.0588,-0.0586,-0.0584,-0.0458,-0.0456,-0.0455,-0.0397,-0.0397,-0.0397,-0.0397,-0.0284,-0.0281,-0.0277,0,0,0,0,0,0,0,0,0,0,0,0,0,-0.064,-0.0725,-0.0588,-0.054,-0.0534,-0.0458,-0.0456,-0.0454,-0.0397,-0.0397,-0.0397,-0.0397,-0.0286,-0.0281,-0.0276,-0.0245,0,0,-0.0262,-0.026,0,0,0,0,0,0,0,0,-0.0645,-0.0635,-0.0549,-0.0543,-0.0536,-0.0443,-0.0464,-0.0385,-0.0397,-0.045,-0.0397,-0.0397,-0.0338,-0.0329,-0.0305,-0.0239,-0.0234,-0.0262,-0.0259,-0.0257,-0.0255,0,0,0,0,0,0,0,-0.0651,-0.064,-0.0537,-0.0547,-0.0539,-0.0505,-0.0493,-0.0448,-0.0395,-0.0445,-0.044,-0.0425,-0.0335,-0.0309,-0.0302,-0.0233,-0.0262,-0.0258,-0.0255,-0.0253,-0.0129,-0.0129,0,0,0,0,0,0,-0.0668,-0.0646,-0.0541,-0.0533,-0.0591,-0.0502,-0.0489,-0.0473,-0.0395,-0.0383,-0.0425,-0.0423,-0.0317,-0.0307,-0.0297,-0.0249,-0.0257,-0.0252,-0.025,-0.013,-0.0129,-0.0129,0,0,0,0,0,0,-0.0672,-0.066,-0.0546,-0.0586,-0.0569,-0.05,-0.0483,-0.0471,-0.0446,-0.038,-0.0368,-0.0413,-0.0317,-0.0304,-0.0254,-0.0245,-0.025,-0.0246,-0.013,-0.013,-0.0129,-0.0156,0,0,0,0,0,0,-0.0676,-0.0662,-0.0662,-0.0587,-0.0567,-0.0505,-0.0482,-0.0468,-0.0436,-0.0432,-0.0365,-0.0354,-0.0316,-0.0261,-0.0249,-0.0238,-0.0242,-0.0131,-0.013,-0.0129,-0.0156,-0.0157,-0.0157,0,0,0,0,0,-0.0682,-0.0682,-0.0663,-0.065,-0.0567,-0.0505,-0.0492,-0.0444,-0.0436,-0.0423,-0.0376,-0.0357,-0.0248,-0.0257,-0.0243,-0.023,-0.0131,-0.013,-0.0129,-0.0156,-0.0156,-0.0157,0,0,0,0,0,0,-0.0747,-0.0673,-0.0651,-0.063,-0.0574,-0.0495,-0.0482,-0.0448,-0.04,-0.0402,-0.0344,-0.033,-0.0285,-0.0254,-0.0266,-0.0193,-0.0188,-0.0185,-0.0213,-0.0213,-0.0214,-0.0222,-0.0239,0,0,0,0,0,-0.076,-0.0739,-0.0662,-0.0647,-0.0623,-0.0555,-0.0526,-0.0491,-0.0436,-0.0415,-0.0364,-0.0315,-0.0268,-0.024,-0.0196,-0.0152,-0.0119,-0.0137,-0.0137,-0.0138,-0.0135,-0.0082,-0.0078,-0.0125,-0.0125,-0.0125,0,0,-0.0784,-0.0739,-0.073,-0.066,-0.0616,-0.058,-0.0538,-0.0499,-0.0464,-0.0411,-0.0359,-0.0316,-0.0259,-0.0209,-0.0187,-0.0182,-0.0106,-0.0137,-0.0138,-0.0134,-0.008,-0.0076,-0.0072,-0.0125,-0.0125,-0.0125,0,0,-0.082,-0.078,-0.0774,-0.0726,-0.0659,-0.0608,-0.0599,-0.0519,-0.0482,-0.0424,-0.038,-0.0328,-0.0257,-0.0204,-0.0172,-0.0149,-0.0115,-0.0144,-0.0144,-0.0093,-0.0089,-0.0085,-0.0033,-0.0024,-0.0139,-0.0139,-0.0139,0,-0.0857,-0.083,-0.0764,-0.0739,-0.0706,-0.0625,-0.0608,-0.0549,-0.0462,-0.0426,-0.0417,-0.0295,-0.025,-0.0177,-0.017,-0.0149,-0.0119,-0.0148,-0.0094,-0.009,-0.0085,-0.0033,-0.0023,-0.014,-0.014,-0.014,-0.014,0,-0.0878,-0.0856,-0.0848,-0.0787,-0.074,-0.0714,-0.0622,-0.0573,-0.0521,-0.0457,-0.0377,-0.0304,-0.0233,-0.0209,-0.0181,-0.0121,-0.0111,-0.0106,-0.0096,-0.0082,-0.0028,-0.0017,-0.0142,-0.0142,-0.0141,-0.0141,0,0,-0.0974,-0.0884,-0.0885,-0.0865,-0.0765,-0.0733,-0.0665,-0.0579,-0.0536,-0.0446,-0.0386,-0.0294,-0.0251,-0.0213,-0.0163,-0.0111,-0.0051,-0.01,-0.0097,-0.0054,0.0062,0.0158,0.0179,-0.0043,-0.0041,-0.004,0.0087,0,-0.1018,-0.1004,-0.0927,-0.0903,-0.089,-0.078,-0.0722,-0.063,-0.0542,-0.046,-0.036,-0.029,-0.0252,-0.0222,-0.0162,-0.0075,-0.0023,-0.0085,0.0047,0.0051,0.0131,0.0195,0.0104,0.0217,0.0098,0.01,0.0101,0,-0.1073,-0.1054,-0.1049,-0.0965,-0.0946,-0.0907,-0.0802,-0.0736,-0.0589,-0.052,-0.0418,-0.0331,-0.0219,-0.0209,-0.0043,-0.0087,-0.0021,0.0043,0.005,0.0158,0.0169,0.0185,0.0242,0.012,0.0119,0.0117,0.0116,0,-0.1199,-0.1138,-0.114,-0.1113,-0.1004,-0.0971,-0.0909,-0.077,-0.0713,-0.0561,-0.0505,-0.035,-0.0276,-0.0162,-0.0003,-0.0031,0.0174,0.0151,0.0303,0.031,0.0271,0.0273,0.025,0.025,0.0249,0.0249,0.0249,0,-0.1287,-0.1286,-0.1203,-0.1207,-0.12,-0.108,-0.104,-0.0944,-0.0811,-0.0738,-0.0562,-0.047,-0.0265,-0.0109,0.0004,0.0219,0.0186,0.0328,0.0362,0.0261,0.0261,0.02,0.0193,0.0254,0.0253,0.0252,0.0251,0,-0.1424,-0.1367,-0.1369,-0.1286,-0.1263,-0.1264,-0.1153,-0.1119,-0.0965,-0.0865,-0.0819,-0.0558,-0.0319,-0.0099,0.0122,0.0242,0.0421,0.0488,0.0372,0.0392,0.0512,0.0501,0.0674,0.0679,0.0683,0.0686,0.0689,0,-0.1492,-0.1512,-0.1469,-0.1491,-0.1458,-0.143,-0.1409,-0.124,-0.1177,-0.0913,-0.0872,-0.0589,-0.0369,0.0038,0.0287,0.0554,0.0537,0.0636,0.0583,0.0547,0.0561,0.0544,0.0529,0.0507,0.0508,0.0508,0.0509,0,-0.1627,-0.161,-0.1618,-0.1682,-0.168,-0.1656,-0.159,-0.155,-0.1323,-0.1169,-0.0915,-0.0709,-0.0272,0.0059,0.0443,0.0565,0.0599,0.0668,0.0664,0.0432,0.0405,0.0414,0.0401,0.0517,0.0516,0.0516,0.0515,0.0515,-0.1731,-0.1787,-0.1817,-0.1878,-0.1885,-0.1873,-0.1859,-0.1706,-0.1561,-0.1285,-0.1037,-0.0703,-0.0313,0.0209,0.0497,0.073,0.0714,0.0745,0.0734,0.0724,0.0701,0.0686,0.0845,0.0846,0.0847,0.0847,0.0848,0,-0.1833,-0.1933,-0.2014,-0.2066,-0.2087,-0.2062,-0.1977,-0.1864,-0.1671,-0.1393,-0.1101,-0.0641,-0.0244,0.014,0.0516,0.0791,0.0709,0.0831,0.0663,0.0654,0.0646,0.0613,0.0736,0.0737,0.0738,0.0739,0,0,-0.19,-0.2015,-0.2066,-0.2205,-0.2264,-0.2224,-0.2176,-0.1964,-0.1727,-0.138,-0.1133,-0.0825,-0.0302,-0.0033,0.0322,0.053,0.05,0.0529,0.058,0.0325,0.0314,0.0555,0.049,0,0,0,0,0]}],[{"header":{"parameterUnit":"m.s-1","parameterCategory":2,"la1":30.2991,"la2":30.254,"lo1":-89.0895,"lo2":-89.0444,"dy":0.0017,"dx":0.0017,"nx":28,"ny":28,"refTime":"2023-10-10T21:00:00:Z","depth":"4","parameterNumber":2,"parameterNumberName":"U-component_of_CURRENTS"},"data":[0,0,0,0,0,0,0,0,0,0,0,0,0,0,0,0,0,0,0,0,0,0,0,0,0,0,0,0,0,0,0,0,0,0,0,0,0,0,0,0,0,0,0,0,0,0,0,0,0,0,0,0,0,0,0,0,0,0,-0.1794,-0.1794,0,-0.1832,-0.1832,-0.1832,-0.187,-0.1871,-0.1872,-0.1872,-0.1892,-0.1892,-0.1892,0,0,0,0,0,0,0,0,0,0,0,0,0,-0.1708,-0.1709,-0.1794,-0.1794,-0.1795,-0.1832,-0.1832,-0.1832,-0.187,-0.1871,-0.1872,-0.1873,-0.1893,-0.1892,-0.1892,0,0,0,0,0,0,0,0,0,0,0,0,0,-0.1742,-0.1709,-0.1793,-0.1821,-0.1824,-0.1832,-0.1832,-0.1832,-0.1869,-0.1871,-0.1872,-0.1873,-0.1893,-0.1892,-0.1892,-0.1865,0,0,-0.1891,-0.1891,0,0,0,0,0,0,0,0,-0.174,-0.1745,-0.1816,-0.1819,-0.1823,-0.1851,-0.1809,-0.1844,-0.1869,-0.1848,-0.1872,-0.1874,-0.1878,-0.1879,-0.1879,-0.1866,-0.1866,-0.1891,-0.1891,-0.189,-0.189,0,0,0,0,0,0,0,-0.1738,-0.1743,-0.1805,-0.1817,-0.1821,-0.1816,-0.1823,-0.1816,-0.1853,-0.185,-0.1854,-0.1864,-0.188,-0.1879,-0.1879,-0.1867,-0.1891,-0.189,-0.189,-0.189,-0.1922,-0.1923,0,0,0,0,0,0,-0.1742,-0.1741,-0.1804,-0.1807,-0.1788,-0.1817,-0.1824,-0.1837,-0.1853,-0.1858,-0.1863,-0.1866,-0.1879,-0.188,-0.188,-0.1951,-0.189,-0.189,-0.189,-0.1921,-0.1923,-0.1924,0,0,0,0,0,0,-0.174,-0.1747,-0.1802,-0.1777,-0.1785,-0.1818,-0.1832,-0.1838,-0.1875,-0.1864,-0.1868,-0.19,-0.188,-0.1881,-0.1908,-0.1948,-0.189,-0.189,-0.192,-0.1922,-0.1923,-0.2027,0,0,0,0,0,0,-0.1737,-0.1746,-0.177,-0.1778,-0.1786,-0.1838,-0.1832,-0.1838,-0.1879,-0.1884,-0.1896,-0.1897,-0.1881,-0.1909,-0.1908,-0.1947,-0.1889,-0.1919,-0.1921,-0.1923,-0.2022,-0.2032,-0.204,0,0,0,0,0,-0.1734,-0.1758,-0.177,-0.1779,-0.1814,-0.184,-0.1844,-0.1868,-0.188,-0.1905,-0.1912,-0.1898,-0.1921,-0.191,-0.1908,-0.1948,-0.1918,-0.192,-0.1922,-0.2018,-0.203,-0.204,0,0,0,0,0,0,-0.1735,-0.1765,-0.1779,-0.1813,-0.184,-0.1848,-0.1877,-0.1889,-0.1913,-0.1926,-0.1912,-0.1913,-0.195,-0.193,-0.1918,-0.196,-0.1917,-0.1919,-0.199,-0.2001,-0.201,-0.2016,-0.1889,0,0,0,0,0,-0.1745,-0.1774,-0.1799,-0.1831,-0.1849,-0.1869,-0.1888,-0.1905,-0.1921,-0.1936,-0.1946,-0.1949,-0.195,-0.1964,-0.1959,-0.1984,-0.1967,-0.2007,-0.2016,-0.2024,-0.2027,-0.2022,-0.2031,-0.1932,-0.1932,-0.1932,0,0,-0.1755,-0.1776,-0.1794,-0.1834,-0.1857,-0.1893,-0.1884,-0.1927,-0.1963,-0.1931,-0.1992,-0.1983,-0.1962,-0.1993,-0.2008,-0.1989,-0.2049,-0.2027,-0.2034,-0.2032,-0.2025,-0.2035,-0.2044,-0.1933,-0.1933,-0.1933,0,0,-0.1779,-0.1811,-0.1842,-0.1872,-0.1918,-0.1931,-0.1954,-0.1987,-0.2015,-0.2057,-0.2043,-0.2059,-0.2074,-0.2066,-0.2061,-0.2113,-0.2093,-0.212,-0.218,-0.2176,-0.2184,-0.2191,-0.2213,-0.222,-0.213,-0.213,-0.213,0,-0.1794,-0.1835,-0.1856,-0.1896,-0.1932,-0.1956,-0.2002,-0.2027,-0.2068,-0.2094,-0.2095,-0.2119,-0.2105,-0.2129,-0.2149,-0.2136,-0.2139,-0.2145,-0.2189,-0.2195,-0.2201,-0.222,-0.2228,-0.2136,-0.2135,-0.2134,-0.2134,0,-0.1827,-0.1881,-0.1905,-0.1965,-0.2005,-0.205,-0.209,-0.2137,-0.2172,-0.2191,-0.224,-0.2221,-0.2234,-0.2235,-0.221,-0.2246,-0.224,-0.2199,-0.2165,-0.2217,-0.2235,-0.2241,-0.2143,-0.2141,-0.214,-0.2138,0,0,-0.1804,-0.1911,-0.1923,-0.1974,-0.205,-0.2083,-0.2156,-0.2217,-0.2271,-0.2304,-0.2362,-0.236,-0.2356,-0.2347,-0.2323,-0.2322,-0.2369,-0.229,-0.2287,-0.2319,-0.2391,-0.2289,-0.2285,-0.2343,-0.2344,-0.2344,-0.24,0,-0.1829,-0.1918,-0.1966,-0.2063,-0.2114,-0.2175,-0.2241,-0.2301,-0.2349,-0.241,-0.2404,-0.244,-0.2397,-0.2413,-0.2408,-0.2374,-0.2384,-0.2359,-0.2328,-0.2328,-0.2236,-0.2287,-0.2347,-0.2404,-0.2405,-0.2406,-0.2406,0,-0.1831,-0.1899,-0.1998,-0.2126,-0.2156,-0.2221,-0.2334,-0.2394,-0.2472,-0.2511,-0.2545,-0.2544,-0.2561,-0.2507,-0.2495,-0.2487,-0.2452,-0.2421,-0.2421,-0.2288,-0.2234,-0.2331,-0.2416,-0.2415,-0.2415,-0.2414,-0.2413,0,-0.178,-0.1917,-0.2002,-0.2045,-0.2186,-0.2254,-0.2328,-0.2424,-0.2489,-0.2572,-0.2627,-0.264,-0.2664,-0.2618,-0.2571,-0.254,-0.2555,-0.2495,-0.2375,-0.237,-0.24,-0.2391,-0.2482,-0.2481,-0.2481,-0.2481,-0.2481,0,-0.1761,-0.1834,-0.1995,-0.2039,-0.2153,-0.2252,-0.2366,-0.2441,-0.2553,-0.2622,-0.267,-0.2708,-0.2693,-0.2698,-0.2623,-0.2532,-0.2598,-0.2397,-0.2372,-0.2446,-0.2442,-0.2406,-0.2396,-0.2483,-0.2483,-0.2482,-0.2482,0,-0.1677,-0.1787,-0.1896,-0.2069,-0.2131,-0.2205,-0.2388,-0.2459,-0.2579,-0.2672,-0.2705,-0.2786,-0.2782,-0.2769,-0.2714,-0.2601,-0.2518,-0.2469,-0.2599,-0.2579,-0.2326,-0.2321,-0.2328,-0.2325,-0.2322,-0.232,-0.2318,0,-0.1638,-0.1684,-0.1888,-0.1962,-0.2049,-0.2186,-0.2277,-0.244,-0.2515,-0.2686,-0.2713,-0.2789,-0.2811,-0.2672,-0.2652,-0.2547,-0.2491,-0.2456,-0.2335,-0.2333,-0.2308,-0.2308,-0.2307,-0.2314,-0.2313,-0.2312,-0.2311,0,-0.1548,-0.1634,-0.1721,-0.1871,-0.1994,-0.2114,-0.2257,-0.231,-0.2485,-0.2635,-0.2657,-0.2637,-0.2651,-0.2583,-0.2551,-0.245,-0.2475,-0.2425,-0.2428,-0.2314,-0.2315,-0.2293,-0.2296,-0.2302,-0.2303,-0.2304,-0.2305,0,-0.1471,-0.1506,-0.1626,-0.1741,-0.1894,-0.1975,-0.2086,-0.2187,-0.2283,-0.2493,-0.2493,-0.2553,-0.2647,-0.2535,-0.2483,-0.2411,-0.2332,-0.222,-0.2232,-0.2243,-0.2179,-0.2164,-0.2093,0,0,0,0,0,-0.1372,-0.1387,-0.1486,-0.1597,-0.1744,-0.1812,-0.2036,-0.2149,-0.2348,-0.2322,-0.2405,-0.2401,-0.2343,-0.2364,-0.2256,-0.2398,-0.2322,-0.2261,-0.2196,-0.2249,-0.226,-0.2186,0,0,0,0,0,0,-0.1304,-0.1373,-0.1415,-0.144,-0.1474,-0.1602,-0.1728,-0.1878,-0.1891,-0.2099,-0.2081,-0.2227,-0.2198,-0.2335,-0.2179,-0.2188,-0.2099,-0.2314,-0.2308,-0.2242,-0.2252,-0.2261,-0.219,0,0,0,0,0]},{"header":{"parameterUnit":"m.s-1","parameterCategory":2,"la1":30.2991,"la2":30.254,"lo1":-89.0895,"lo2":-89.0444,"dy":0.0017,"dx":0.0017,"nx":28,"ny":28,"refTime":"2023-10-10T21:00:00:Z","depth":"4","parameterNumber":3,"parameterNumberName":"V-component_of_CURRENTS"},"data":[0,0,0,0,0,0,0,0,0,0,0,0,0,0,0,0,0,0,0,0,0,0,0,0,0,0,0,0,0,0,0,0,0,0,0,0,0,0,0,0,0,0,0,0,0,0,0,0,0,0,0,0,0,0,0,0,0,0,-0.007,-0.0069,0,0.0011,0.0012,0.0013,0.0056,0.0056,0.0056,0.0056,0.0139,0.0142,0.0144,0,0,0,0,0,0,0,0,0,0,0,0,0,-0.0139,-0.0138,-0.007,-0.0069,-0.0068,0.0011,0.0012,0.0014,0.0056,0.0056,0.0056,0.0056,0.0139,0.0141,0.0144,0,0,0,0,0,0,0,0,0,0,0,0,0,-0.0089,-0.0138,-0.007,-0.0037,-0.0033,0.0011,0.0012,0.0014,0.0056,0.0056,0.0056,0.0056,0.0138,0.0141,0.0144,0.0162,0,0,0.0154,0.0155,0,0,0,0,0,0,0,0,-0.0092,-0.0086,-0.0043,-0.0039,-0.0035,0.0024,0.0019,0.0064,0.0056,0.0022,0.0056,0.0056,0.0101,0.0107,0.0122,0.0166,0.0169,0.0154,0.0156,0.0158,0.0159,0,0,0,0,0,0,0,-0.0095,-0.0089,-0.0038,-0.0042,-0.0037,-0.0009,-0.0003,0.0028,0.006,0.0025,0.0028,0.0037,0.0103,0.0119,0.0124,0.0171,0.0154,0.0157,0.0159,0.016,0.0245,0.0245,0,0,0,0,0,0,-0.0108,-0.0093,-0.004,-0.0035,-0.0063,-0.0008,-0.0001,0.0005,0.0059,0.0068,0.0037,0.0039,0.0113,0.012,0.0127,0.0159,0.0158,0.0161,0.0163,0.0245,0.0245,0.0245,0,0,0,0,0,0,-0.0109,-0.0104,-0.0044,-0.0062,-0.0052,-0.0008,-0.0002,0.0006,0.0021,0.0069,0.0077,0.0043,0.0114,0.0123,0.0157,0.0162,0.0162,0.0165,0.0244,0.0245,0.0245,0.0217,0,0,0,0,0,0,-0.0112,-0.0105,-0.0109,-0.0063,-0.0052,-0.0023,-0.0002,0.0008,0.0026,0.003,0.0077,0.0085,0.0114,0.0152,0.016,0.0166,0.0168,0.0244,0.0245,0.0245,0.0217,0.0216,0.0215,0,0,0,0,0,-0.0115,-0.012,-0.011,-0.0104,-0.0058,-0.0023,-0.0015,0.0018,0.0026,0.0031,0.0067,0.0083,0.0161,0.0155,0.0164,0.0172,0.0244,0.0244,0.0245,0.0218,0.0216,0.0215,0,0,0,0,0,0,-0.0154,-0.0115,-0.0103,-0.0097,-0.0065,-0.0016,-0.001,0.0013,0.0045,0.0044,0.0089,0.01,0.013,0.0155,0.0147,0.0198,0.0204,0.0207,0.018,0.0179,0.0178,0.0164,0.017,0,0,0,0,0,-0.0165,-0.016,-0.0116,-0.0114,-0.01,-0.0057,-0.0041,-0.0018,0.0018,0.0032,0.007,0.0107,0.0141,0.0162,0.0193,0.0223,0.0246,0.0234,0.0233,0.0232,0.0226,0.0272,0.0275,0.0248,0.0248,0.0248,0,0,-0.0183,-0.0159,-0.0158,-0.0122,-0.0097,-0.008,-0.0047,-0.0028,-0.0009,0.0036,0.0068,0.0102,0.0147,0.018,0.0196,0.0202,0.025,0.0232,0.0231,0.0226,0.0273,0.0276,0.0278,0.0248,0.0248,0.0248,0,0,-0.0211,-0.0193,-0.0197,-0.0171,-0.0135,-0.0104,-0.0101,-0.0052,-0.0027,0.0007,0.0046,0.0087,0.0135,0.0178,0.0203,0.0215,0.0239,0.022,0.0209,0.0253,0.0256,0.0258,0.0284,0.0289,0.0224,0.0224,0.0224,0,-0.0235,-0.0231,-0.0193,-0.0184,-0.0169,-0.0119,-0.0117,-0.0079,-0.0024,-0.0,0.0009,0.0097,0.0136,0.0189,0.0194,0.0214,0.0231,0.0209,0.0251,0.0254,0.0257,0.0283,0.0289,0.0223,0.0223,0.0223,0.0223,0,-0.0258,-0.0256,-0.0256,-0.023,-0.0206,-0.0198,-0.0142,-0.0114,-0.0081,-0.0038,0.0017,0.0077,0.013,0.0152,0.0176,0.0221,0.0223,0.024,0.0252,0.0258,0.0285,0.0292,0.0221,0.0221,0.0222,0.0222,0,0,-0.0309,-0.0281,-0.0284,-0.0284,-0.0232,-0.022,-0.0183,-0.0134,-0.0115,-0.005,-0.0014,0.006,0.0096,0.0126,0.0172,0.0215,0.0255,0.023,0.0233,0.0249,0.0335,0.0324,0.033,0.0276,0.0277,0.0278,0.0343,0,-0.0342,-0.0357,-0.032,-0.0328,-0.0331,-0.027,-0.0242,-0.0188,-0.0134,-0.0084,-0.0001,0.0043,0.0088,0.0107,0.0162,0.0232,0.0272,0.0235,0.0331,0.0334,0.0319,0.0338,0.0282,0.0348,0.035,0.0351,0.0351,0,-0.0374,-0.0382,-0.0405,-0.0386,-0.038,-0.0372,-0.0325,-0.0292,-0.0198,-0.0155,-0.008,-0.0014,0.0073,0.0098,0.0229,0.0199,0.0258,0.0312,0.0316,0.0319,0.0335,0.0344,0.0364,0.0363,0.0362,0.0361,0.036,0,-0.044,-0.0437,-0.0465,-0.0458,-0.0425,-0.0422,-0.0401,-0.0322,-0.03,-0.0203,-0.0177,-0.0053,-0.0003,0.0101,0.0225,0.0222,0.0357,0.0373,0.0418,0.0418,0.042,0.0417,0.0451,0.0451,0.0451,0.0451,0.0451,0,-0.0485,-0.0507,-0.0506,-0.0523,-0.0554,-0.0498,-0.0508,-0.0456,-0.0389,-0.036,-0.023,-0.0181,-0.0003,0.0105,0.0212,0.0338,0.0353,0.0416,0.0438,0.0406,0.04,0.0425,0.0421,0.0453,0.0453,0.0452,0.0452,0,-0.0544,-0.0544,-0.0581,-0.0581,-0.0589,-0.0612,-0.0602,-0.0604,-0.052,-0.0479,-0.0453,-0.028,-0.0133,0.0039,0.0217,0.031,0.0436,0.0471,0.0414,0.0431,0.0467,0.0461,0.0529,0.0529,0.0529,0.0529,0.0529,0,-0.057,-0.0599,-0.0646,-0.0694,-0.0702,-0.0732,-0.0757,-0.0687,-0.0671,-0.0538,-0.0519,-0.0362,-0.0236,0.0003,0.0192,0.0404,0.043,0.0497,0.0494,0.0462,0.0477,0.0471,0.0464,0.053,0.053,0.053,0.053,0,-0.0623,-0.0647,-0.0687,-0.0795,-0.0848,-0.0892,-0.0903,-0.0898,-0.0795,-0.0721,-0.0578,-0.0409,-0.0238,-0.0017,0.0153,0.0307,0.0463,0.05,0.05,0.0498,0.0464,0.0477,0.0471,0.0531,0.053,0.053,0.053,0,-0.0662,-0.0715,-0.0791,-0.0878,-0.0967,-0.1023,-0.1015,-0.0971,-0.093,-0.0745,-0.0703,-0.0476,-0.0318,-0.0068,0.009,0.0246,0.0283,0.0331,0.0341,0.0343,0.0279,0.0208,0.0215,0,0,0,0,0,-0.0686,-0.0764,-0.087,-0.0964,-0.1061,-0.11,-0.1101,-0.1064,-0.0951,-0.0872,-0.0776,-0.0606,-0.0316,-0.0174,-0.0029,0.0071,0.029,0.0248,0.0344,0.0534,0.0534,0.049,0,0,0,0,0,0,-0.0709,-0.0813,-0.0878,-0.1027,-0.1104,-0.1189,-0.1194,-0.1118,-0.1042,-0.0904,-0.0759,-0.0589,-0.0326,-0.0424,-0.0039,0.0019,0.0099,0.041,0.0413,0.0535,0.0534,0.0533,0.0488,0,0,0,0,0]}]]